Location: Bottom School (historical)
(37.9078°N, 89.3593°W)
Time: 05:17:22
(UTC+00:00)

AO-27 - Visible Passes

Search period start: 21 March 2023 00:00
Search period end: 31 March 2023 00:00
Orbit: 785 x 796 km, 98.9° (Epoch: 20 March)

Date Brightness Start Highest point End Pass type
(mag) Time Alt. Az. Time Alt. Az. Time Alt. Az.
21 Mar 7.6 01:37:48 10° SSE 01:42:59 89° WSW 01:48:13 10° NNW visible
22 Mar 7.9 01:08:49 10° SE 01:13:46 48° ENE 01:18:46 10° N visible
22 Mar 10.1 02:49:53 10° SW 02:53:27 19° W 02:57:03 10° NW visible
23 Mar 8.7 00:40:28 10° ESE 00:44:41 26° ENE 00:48:56 10° NNE visible
23 Mar 9.1 02:19:12 10° SSW 02:23:56 36° W 02:28:43 10° NNW visible
24 Mar 7.9 01:49:23 10° S 01:54:33 70° WSW 01:59:46 10° NNW visible
25 Mar 7.7 01:20:11 10° SSE 01:25:17 62° ENE 01:30:26 10° N visible
25 Mar 10.3 03:02:23 10° SW 03:05:08 14° W 03:07:53 10° WNW visible
26 Mar 8.4 00:51:35 10° SE 00:56:09 32° ENE 01:00:45 10° N visible
26 Mar 9.5 02:31:10 10° SSW 02:35:34 28° W 02:40:01 10° NW visible
27 Mar 8.3 02:01:05 10° S 02:06:08 54° W 02:11:15 10° NNW visible
28 Mar 7.6 01:31:38 10° SSE 01:36:49 79° ENE 01:42:03 10° N visible
28 Mar 10.5 03:15:38 10° WSW 03:16:49 11° W 03:18:02 10° WNW visible
29 Mar 8.1 01:02:48 10° SE 01:07:38 41° ENE 01:12:30 10° N visible
29 Mar 9.8 02:43:16 10° SW 02:47:13 22° W 02:51:12 10° NW visible
30 Mar 8.9 00:34:37 10° ESE 00:38:35 22° ENE 00:42:34 10° NNE visible
30 Mar 8.8 02:12:50 10° S 02:17:43 42° W 02:22:40 10° NNW visible
